Location: Rumah Long Bangan
(2.8362°N, 113.7519°E)
Time: 05:07:11
(UTC+00:00)

USA 229 DEB - Pass Details

Date: 24 October 2021
Orbit: 944 x 1268 km, 63.4° (Epoch: 25 November)

Event Time Altitude Azimuth Distance (km) Brightness Sun altitude
Rises 21:37:13 0° 325° (NW) 4,168 6.4 -8.4°
Reaches altitude 10° 21:40:04 10° 320° (NW) 3,224 5.7 -7.7°
Maximum altitude 21:47:35 49° 248° (WSW) 1,582 4.3 -5.9°
Drops below altitude 10° 21:55:07 10° 175° (S) 3,226 6.5 -4.0°
Sets 21:58:00 0° 169° (S) 4,169 7.1 -3.3°
